Regional Weather Roundup
Issued by NWS

Home | Current Version | Previous Version | Text Only | Print | Product List | Glossary Off
Versions: 1 2 3 4 5 6 7 8 9 10 11 12 13 14 15 16 17 18 19 20 21 22 23 24 25 26 27 28 29 30 31 32 33 34 35 36 37 38 39 40 41 42 43 44 45 46 47 48 49 50

000
ASUS43 KLOT 031606
RWRIL

ILLINOIS REGIONAL WEATHER ROUNDUP
NATIONAL WEATHER SERVICE CHICAGO/ROMEOVILLE IL
1000 AM CST TUE MAR 03 2015

NOTE: "FAIR" INDICATES FEW OR NO CLOUDS BELOW 12,000 FEET WITH NO
SIGNIFICANT WEATHER AND/OR OBSTRUCTIONS TO VISIBILITY.

* THESE STATIONS ARE NOT UNDER NWS QUALITY CONTROL. THEY ALSO MAY NOT
  REPORT WEATHER SUCH AS PRECIPITATION OR FOG.

ILZ001-002-007-009-015-016-024-031700-
NORTHWEST ILLINOIS

CITY           SKY/WX    TMP DP  RH WIND       PRES   REMARKS
MOLINE         CLOUDY    31  28  89 SW13      29.70F FOG     WCI  21
STERLING*      CLOUDY    30  28  93 SW6       29.71F WCI  24
SAVANNA*       MIX PCPN  31  29  92 S7        29.68F WCI  24
$$

ILZ003-004-008-010-011-017-018-031700-
NORTH CENTRAL ILLINOIS

CITY           SKY/WX    TMP DP  RH WIND       PRES   REMARKS
ROCKFORD       FRZ DRZL  30  27  88 S16       29.72S WCI  19
FREEPORT*      CLOUDY    30  28  94 S20       29.71S FOG     WCI  17
ROCHELLE*      CLOUDY    30  29  96 S7        29.70F FOG     WCI  23
DE KALB*       CLOUDY    28  27  96 S12       29.70F FOG     WCI  18
PERU*          CLOUDY    32  31  96 S13       29.72F FOG     WCI  22
$$

ILZ005-006-012>014-019>023-031700-
NORTHEAST ILLINOIS

CITY           SKY/WX    TMP DP  RH WIND       PRES   REMARKS
CHICAGO-OHARE  FRZ DRZL  30  27  88 S20G28    29.71F FOG     WCI  17
CHICAGO-MIDWAY FRZ DRZL  32  29  88 S14       29.74F FOG     WCI  22
AURORA         LGT SNOW  31  27  85 S18       29.71F FOG     WCI  19
LANSING*       MIX PCPN  31  29  93 S18G25    29.76F WCI  19
JOLIET*        DRIZZLE   31  29  93 S13G21    29.73F WCI  21
WAUKEGAN       FRZ RAIN  29  28  96 S9G20     29.70F FOG     WCI  20
DUPAGE AIRPORT LGT SNOW  30  28  92 S20G26    29.69F FOG     WCI  17
KANKAKEE*      MIX PCPN  31  29  93 S12G17    29.76F WCI  22
WHEELING       MIX PCPN  30  28  92 S15       29.72F FOG     WCI  19
MORRIS*        MIX PCPN  31  31  97 S15       29.72F WCI  21
ROMEOVILLE*    LGT RAIN  31  29  94 S18       29.71F WCI  19
NORTHERLY ISL    N/A     30  28  92 S3          N/A
$$

LMZ740>746-031700-
SOUTHERN LAKE MICHIGAN

STATION/POSITION SKY/WX   TEMP    WIND        PRES    VSBY  WAVE
                          AIR SEA DIR/SP/G                  HT/PER
                          (F)     (DEG/KT/KT) (MB)    (MI)  (FT/S)
WAUKEGAN HARBOR            29                   N/A
HARRISON CRIB              30     180/  2/  3   N/A
BURNHAM HARBOR             30     190/  7/  8   N/A
CALUMET HARBOR             30     170/ 11/ 19   N/A
MICHIGAN CITY              29     140/ 13/ 20   N/A
$$

ILZ025>027-034>036-040-047-049-050-058-095>099-031700-
WEST-CENTRAL ILLINOIS

CITY           SKY/WX    TMP DP  RH WIND       PRES   REMARKS
QUINCY         FOG       33  32  96 S14       29.73F VSB 1   WCI  23
GALESBURG*     CLOUDY    31  31  99 S13G18    29.72F FOG     WCI  21
MACOMB*        CLOUDY    32  32  99 S8        29.76S WCI  25
JACKSONVILLE*  CLOUDY    36  33  92 S12       29.76F FOG     WCI  27
PITTSFIELD*    CLOUDY    36  34  93 S10       29.75F FOG     WCI  28
$$

ILZ028>032-037-038-041>044-048-051>054-059>061-031700-
CENTRAL ILLINOIS

CITY           SKY/WX    TMP DP  RH WIND       PRES   REMARKS
PONTIAC        CLOUDY    33  32  96 S18       29.73F FOG     WCI  22
BLOOMINGTON    FRZ RAIN  33  32  96 S16       29.73F VSB 3/4 WCI  22
DECATUR        MIX PCPN  34  33  96 S20       29.78F FOG     WCI  23
PEORIA         CLOUDY    33  31  92 S16       29.74F FOG     WCI  23
LACON*         DRIZZLE   32  30  93 SW9       29.73F WCI  24
LINCOLN*       LGT RAIN  34  33  94 S15       29.78F WCI  24
SPRINGFIELD    CLOUDY    35  32  88 S21       29.76F FOG     WCI  24
TAYLORVILLE    CLOUDY    34  32  93 S15G23    29.77F FOG     WCI  24
$$

ILZ033-039-045-046-055>057-062-063-031700-
EAST-CENTRAL ILLINOIS

CITY           SKY/WX    TMP DP  RH WIND       PRES   REMARKS
CHAMPAIGN      FRZ RAIN  33  31  92 S21       29.79F FOG     WCI  21
DANVILLE*      CLOUDY    32  31  96 S14G21    29.78F FOG     WCI  22
RANTOUL*       CLOUDY    33  32  96 S18       29.77F FOG     WCI  22
MATTOON        CLOUDY    33  32  96 S16G24    29.80F FOG     WCI  23
PARIS*         CLOUDY    33  32  96 S14       29.85F FOG     WCI  23
$$

ILZ079-100>102-031700-
SOUTHWEST ILLINOIS

CITY           SKY/WX    TMP DP  RH WIND       PRES   REMARKS
ALTON          CLOUDY    37  36  93 S17       29.80F FOG     WCI  28
BELLEVILLE     CLOUDY    38  37  99 S9        29.82F WCI  31
CAHOKIA*       CLOUDY    42  37  82 S13G20    29.80F
SPARTA*        CLOUDY    37  36  94 S13G21    29.86F FOG     WCI  29
$$

ILZ064>066-069>071-074>076-080>082-084>086-088>090-092>094-031700-
SOUTH-CENTRAL ILLINOIS

CITY           SKY/WX    TMP DP  RH WIND       PRES   REMARKS
CARBONDALE     LGT RAIN  40  38  93 SW17      29.93R FOG
CAIRO*         FOG       42  42 100 S6        30.00F VSB<1/4
EFFINGHAM*     CLOUDY    37  33  89 SE10G16   29.86F FOG     WCI  29
MARION         CLOUDY    41  39  93 S17       29.93F FOG
MT. VERNON     CLOUDY    37  34  87 S15G29    29.89F WCI  28
CENTRALIA*     CLOUDY    38  35  90 S16       29.86F FOG     WCI  28
SALEM*         CLOUDY    40  37  90 S13       29.86F FOG
METROPOLIS*    FOG       44  44 100 SW7       29.99R VSB 1/2
$$

ILZ067-068-072-073-078-083-087-091-031700-
SOUTHEAST ILLINOIS

CITY           SKY/WX    TMP DP  RH WIND       PRES   REMARKS
LAWRENCEVILLE  LGT SNOW  37  35  92 S15       29.90F FOG     WCI  28
FLORA*         CLOUDY    37  36  96 S12       29.89F FOG     WCI  29
FAIRFIELD*     CLOUDY    38  38  97 S12       29.89F FOG     WCI  31
HARRISBURG*    CLOUDY    43  43 100 SW14G21   29.95F FOG
ROBINSON*      LGT RAIN  35  34  96 S7        29.91S WCI  29
CARMI*         CLOUDY    42  41  97 S18G24    29.91F FOG
$$

ABBREVIATIONS USED IN REMARKS
   TC - TEMPERATURE IN CELSIUS
  WCI - WIND CHILL INDEX
   HX - HEAT INDEX
  VSB - VISIBILITY
$$




USA.gov is the U.S. government's official web portal to all federal, state and local government web resources and services.